Time,TemperatureF,DewpointF,PressureIn,WindDirection,WindDirectionDegrees,WindSpeedMPH,WindSpeedGustMPH,Humidity,HourlyPrecipIn,Conditions,Clouds,dailyrainin,SolarRadiationWatts/m^2,SoftwareType,DateUTC
2013-09-29 00:11:00,54.0,33.0,-100.00,East,90,4.0,9.0,44,0.00,,,0.00,0.000000,,2013-09-29 07:11:00,
2013-09-29 00:22:00,54.0,33.0,-100.00,East,90,4.0,9.0,44,0.00,,,0.00,0.000000,,2013-09-29 07:22:00,
2013-09-29 00:32:00,54.0,33.0,-100.00,East,90,4.0,9.0,44,0.00,,,0.00,0.000000,,2013-09-29 07:32:00,
2013-09-29 01:12:00,54.0,33.0,-100.00,East,93,4.0,8.0,44,0.00,,,0.00,0.000000,,2013-09-29 08:12:00,
2013-09-29 01:22:00,54.0,33.0,-100.00,East,93,4.0,8.0,44,0.00,,,0.00,0.000000,,2013-09-29 08:22:00,
2013-09-29 01:31:00,54.0,33.0,-100.00,East,93,4.0,8.0,44,0.00,,,0.00,0.000000,,2013-09-29 08:31:00,
2013-09-29 02:11:00,54.0,31.0,-100.00,East,91,5.0,8.0,42,0.00,,,0.00,0.000000,,2013-09-29 09:11:00,
2013-09-29 02:22:00,54.0,31.0,-100.00,East,91,5.0,8.0,42,0.00,,,0.00,0.000000,,2013-09-29 09:22:00,
2013-09-29 02:33:00,54.0,31.0,-100.00,East,91,5.0,8.0,42,0.00,,,0.00,0.000000,,2013-09-29 09:33:00,
2013-09-29 03:12:00,53.0,31.0,-100.00,ENE,75,5.0,7.0,43,0.00,,,0.00,0.000000,,2013-09-29 10:12:00,
2013-09-29 03:23:00,53.0,31.0,-100.00,ENE,75,5.0,7.0,43,0.00,,,0.00,0.000000,,2013-09-29 10:23:00,
2013-09-29 03:32:00,53.0,31.0,-100.00,ENE,75,5.0,7.0,43,0.00,,,0.00,0.000000,,2013-09-29 10:32:00,
2013-09-29 04:12:00,53.0,34.0,-100.00,SSE,168,2.0,6.0,48,0.00,,,-99.99,0.000000,,2013-09-29 11:12:00,
2013-09-29 04:22:00,53.0,34.0,-100.00,SSE,168,2.0,6.0,48,0.00,,,-99.99,0.000000,,2013-09-29 11:22:00,
2013-09-29 04:33:00,53.0,34.0,-100.00,SSE,168,2.0,6.0,48,0.00,,,-99.99,0.000000,,2013-09-29 11:33:00,
2013-09-29 05:12:00,53.0,37.0,-100.00,SW,220,2.0,6.0,54,0.00,,,0.00,0.000000,,2013-09-29 12:12:00,
2013-09-29 05:21:00,53.0,37.0,-100.00,SW,220,2.0,6.0,54,0.00,,,0.00,0.000000,,2013-09-29 12:21:00,
2013-09-29 05:32:00,53.0,37.0,-100.00,SW,220,2.0,6.0,54,0.00,,,0.00,0.000000,,2013-09-29 12:32:00,
2013-09-29 06:11:00,53.0,36.0,-100.00,SW,225,2.0,7.0,52,0.00,,,-99.99,0.000000,,2013-09-29 13:11:00,
2013-09-29 06:22:00,53.0,36.0,-100.00,SW,225,2.0,7.0,52,0.00,,,-99.99,0.000000,,2013-09-29 13:22:00,
2013-09-29 06:32:00,53.0,36.0,-100.00,SW,225,2.0,7.0,52,0.00,,,-99.99,0.000000,,2013-09-29 13:32:00,
2013-09-29 07:11:00,53.0,35.0,-100.00,WSW,255,1.0,5.0,51,0.00,,,0.00,5.000000,,2013-09-29 14:11:00,
2013-09-29 07:21:00,53.0,35.0,-100.00,WSW,255,1.0,5.0,51,0.00,,,0.00,5.000000,,2013-09-29 14:21:00,
2013-09-29 07:32:00,53.0,35.0,-100.00,WSW,255,1.0,5.0,51,0.00,,,0.00,5.000000,,2013-09-29 14:32:00,
2013-09-29 08:12:00,62.0,40.0,-100.00,WSW,237,3.0,4.0,45,0.00,,,-99.99,176.000000,,2013-09-29 15:12:00,
2013-09-29 08:22:00,62.0,40.0,-100.00,WSW,237,3.0,4.0,45,0.00,,,-99.99,176.000000,,2013-09-29 15:22:00,
2013-09-29 08:35:00,62.0,40.0,-100.00,WSW,237,3.0,4.0,45,0.00,,,-99.99,176.000000,,2013-09-29 15:35:00,
2013-09-29 09:13:00,67.0,43.0,-100.00,SW,236,3.0,5.0,42,0.00,,,0.00,449.000000,,2013-09-29 16:13:00,
2013-09-29 09:24:00,67.0,43.0,-100.00,SW,236,3.0,5.0,42,0.00,,,0.00,449.000000,,2013-09-29 16:24:00,
2013-09-29 09:33:00,67.0,43.0,-100.00,SW,236,3.0,5.0,42,0.00,,,0.00,449.000000,,2013-09-29 16:33:00,
2013-09-29 10:12:00,69.0,44.0,-100.00,SSW,202,3.0,7.0,40,0.00,,,0.00,700.000000,,2013-09-29 17:12:00,
2013-09-29 10:23:00,69.0,44.0,-100.00,SSW,202,3.0,7.0,40,0.00,,,0.00,700.000000,,2013-09-29 17:23:00,
2013-09-29 10:34:00,69.0,44.0,-100.00,SSW,202,3.0,7.0,40,0.00,,,0.00,700.000000,,2013-09-29 17:34:00,
2013-09-29 11:13:00,72.0,41.0,-100.00,SW,225,3.0,8.0,33,0.00,,,0.00,899.000000,,2013-09-29 18:13:00,
2013-09-29 11:22:00,72.0,41.0,-100.00,SW,225,3.0,8.0,33,0.00,,,0.00,899.000000,,2013-09-29 18:22:00,
2013-09-29 11:32:00,72.0,41.0,-100.00,SW,225,3.0,8.0,33,0.00,,,0.00,899.000000,,2013-09-29 18:32:00,
2013-09-29 12:11:00,70.0,40.0,-100.00,South,186,5.0,13.0,34,0.00,,,0.00,1032.000000,,2013-09-29 19:11:00,
2013-09-29 12:21:00,70.0,40.0,-100.00,South,186,5.0,13.0,34,0.00,,,0.00,1032.000000,,2013-09-29 19:21:00,
2013-09-29 12:31:00,70.0,40.0,-100.00,South,186,5.0,13.0,34,0.00,,,0.00,1032.000000,,2013-09-29 19:31:00,
2013-09-29 13:12:00,70.0,41.0,-100.00,South,191,4.0,11.0,35,0.00,,,0.00,1085.000000,,2013-09-29 20:12:00,
2013-09-29 13:22:00,70.0,41.0,-100.00,South,191,4.0,11.0,35,0.00,,,0.00,1085.000000,,2013-09-29 20:22:00,
2013-09-29 13:32:00,70.0,41.0,-100.00,South,191,4.0,11.0,35,0.00,,,0.00,1085.000000,,2013-09-29 20:32:00,
2013-09-29 14:11:00,71.0,42.0,-100.00,South,178,5.0,10.0,35,0.00,,,0.00,1058.000000,,2013-09-29 21:11:00,
2013-09-29 14:21:00,71.0,42.0,-100.00,South,178,5.0,10.0,35,0.00,,,0.00,1058.000000,,2013-09-29 21:21:00,
2013-09-29 14:34:00,71.0,42.0,-100.00,South,178,5.0,10.0,35,0.00,,,0.00,1058.000000,,2013-09-29 21:34:00,
2013-09-29 15:14:00,74.0,42.0,-100.00,SSW,209,4.0,11.0,32,0.00,,,0.00,951.000000,,2013-09-29 22:14:00,
2013-09-29 15:23:00,74.0,42.0,-100.00,SSW,209,4.0,11.0,32,0.00,,,0.00,951.000000,,2013-09-29 22:23:00,
2013-09-29 15:33:00,74.0,42.0,-100.00,SSW,209,4.0,11.0,32,0.00,,,0.00,951.000000,,2013-09-29 22:33:00,
2013-09-29 16:12:00,72.0,41.0,-100.00,SW,225,4.0,9.0,33,0.00,,,0.00,771.000000,,2013-09-29 23:12:00,
2013-09-29 16:23:00,72.0,41.0,-100.00,SW,225,4.0,9.0,33,0.00,,,0.00,771.000000,,2013-09-29 23:23:00,
2013-09-29 16:34:00,72.0,41.0,-100.00,SW,225,4.0,9.0,33,0.00,,,0.00,771.000000,,2013-09-29 23:34:00,
2013-09-29 17:11:00,71.0,41.0,-100.00,SW,234,3.0,8.0,34,0.00,,,0.00,529.000000,,2013-09-30 00:11:00,
2013-09-29 17:22:00,71.0,41.0,-100.00,SW,234,3.0,8.0,34,0.00,,,0.00,529.000000,,2013-09-30 00:22:00,
2013-09-29 17:32:00,71.0,41.0,-100.00,SW,234,3.0,8.0,34,0.00,,,0.00,529.000000,,2013-09-30 00:32:00,
2013-09-29 18:11:00,68.0,41.0,-100.00,WSW,250,3.0,6.0,37,0.00,,,0.00,262.000000,,2013-09-30 01:11:00,
2013-09-29 18:22:00,68.0,41.0,-100.00,WSW,250,3.0,6.0,37,0.00,,,0.00,262.000000,,2013-09-30 01:22:00,
2013-09-29 18:31:00,68.0,41.0,-100.00,WSW,250,3.0,6.0,37,0.00,,,0.00,262.000000,,2013-09-30 01:31:00,
2013-09-29 19:12:00,58.0,34.0,-100.00,WSW,237,0.0,4.0,41,0.00,,,-99.99,31.000000,,2013-09-30 02:12:00,
2013-09-29 19:22:00,58.0,34.0,-100.00,WSW,237,0.0,4.0,41,0.00,,,-99.99,31.000000,,2013-09-30 02:22:00,
2013-09-29 19:32:00,58.0,34.0,-100.00,WSW,237,0.0,4.0,41,0.00,,,-99.99,31.000000,,2013-09-30 02:32:00,
2013-09-29 20:12:00,56.0,34.0,-100.00,West,259,1.0,2.0,43,0.00,,,0.00,0.000000,,2013-09-30 03:12:00,
2013-09-29 20:22:00,56.0,34.0,-100.00,West,259,1.0,2.0,43,0.00,,,0.00,0.000000,,2013-09-30 03:22:00,
2013-09-29 20:34:00,56.0,34.0,-100.00,West,259,1.0,2.0,43,0.00,,,0.00,0.000000,,2013-09-30 03:34:00,
2013-09-29 21:14:00,57.0,31.0,-100.00,SW,226,3.0,5.0,37,0.00,,,0.00,0.000000,,2013-09-30 04:14:00,
2013-09-29 21:24:00,57.0,31.0,-100.00,SW,226,3.0,5.0,37,0.00,,,0.00,0.000000,,2013-09-30 04:24:00,
2013-09-29 21:33:00,57.0,31.0,-100.00,SW,226,3.0,5.0,37,0.00,,,0.00,0.000000,,2013-09-30 04:33:00,
2013-09-29 22:12:00,54.0,31.0,-100.00,West,262,4.0,6.0,41,0.00,,,0.00,0.000000,,2013-09-30 05:12:00,
2013-09-29 22:23:00,54.0,31.0,-100.00,West,262,4.0,6.0,41,0.00,,,0.00,0.000000,,2013-09-30 05:23:00,
2013-09-29 22:33:00,54.0,31.0,-100.00,West,262,4.0,6.0,41,0.00,,,0.00,0.000000,,2013-09-30 05:33:00,
2013-09-29 23:12:00,53.0,28.0,-100.00,West,265,4.0,6.0,38,0.00,,,0.00,0.000000,,2013-09-30 06:12:00,
2013-09-29 23:21:00,53.0,28.0,-100.00,West,265,4.0,6.0,38,0.00,,,0.00,0.000000,,2013-09-30 06:21:00,
2013-09-29 23:32:00,53.0,28.0,-100.00,West,265,4.0,6.0,38,0.00,,,0.00,0.000000,,2013-09-30 06:32:00,